Location: Le Hiès Ruisseau
(43.3000°N, 0.4500°W)
Time: 16:53:16
(UTC+00:00)

ATLAS 2AS CENTAUR R/B - Visible Passes

Search period start: 30 September 2023 00:00
Search period end: 10 October 2023 00:00
Orbit: 998 x 1213 km, 63.7° (Epoch: 27 September)

Date Brightness Start Highest point End Pass type
(mag) Time Alt. Az. Time Alt. Az. Time Alt. Az.
30 Sep 5.2 00:40:33 13° ENE 00:40:33 13° ENE 00:41:26 10° ENE visible
30 Sep 3.2 02:28:00 62° NE 02:28:00 62° NE 02:33:54 10° NE visible
30 Sep 4.0 04:15:26 22° WNW 04:18:23 28° NW 04:24:26 10° NNE visible
01 Oct 4.0 01:44:43 36° NE 01:44:43 36° NE 01:48:52 10° NE visible
01 Oct 3.5 03:32:09 36° NW 03:33:01 37° NW 03:39:39 10° NNE visible
01 Oct 4.6 05:21:55 10° NW 05:26:11 16° NNW 05:30:21 10° NNE visible
02 Oct 4.8 01:01:23 21° ENE 01:01:23 21° ENE 01:03:40 10° NE visible
02 Oct 3.4 02:48:49 49° NNW 02:48:49 49° NNW 02:54:51 10° NNE visible
02 Oct 4.4 04:36:16 12° WNW 04:40:27 19° NNW 04:45:20 10° NNE visible
03 Oct 5.3 00:18:02 10° ENE 00:18:02 10° ENE 00:18:09 10° ENE visible
03 Oct 3.8 02:05:28 42° NNE 02:05:28 42° NNE 02:09:59 10° NNE visible
03 Oct 4.1 03:52:54 22° NW 03:54:50 24° NNW 04:00:29 10° NNE visible
04 Oct 4.5 01:22:06 27° NE 01:22:06 27° NE 01:25:03 10° NE visible
04 Oct 3.9 03:09:31 31° NW 03:09:31 31° NW 03:15:41 10° NNE visible
04 Oct 4.7 04:58:54 10° NW 05:02:47 15° N 05:06:36 10° NNE visible
05 Oct 5.1 00:38:41 16° NE 00:38:41 16° NE 00:39:58 10° NE visible
05 Oct 3.9 02:26:07 35° N 02:26:07 35° N 02:30:53 10° NNE visible
05 Oct 4.6 04:13:33 13° NW 04:17:00 17° NNW 04:21:28 10° NNE visible
06 Oct 4.3 01:42:41 29° NNE 01:42:41 29° NNE 01:46:03 10° NNE visible
06 Oct 4.3 03:30:07 20° NW 03:31:18 21° NNW 03:36:33 10° NNE visible
06 Oct 4.8 05:21:47 10° NNW 05:25:18 14° N 05:28:43 10° NNE visible
07 Oct 4.9 00:59:15 20° NE 00:59:15 20° NE 01:01:10 10° NE visible
07 Oct 4.2 02:46:40 26° NNW 02:46:40 26° NNW 02:51:42 10° NNE visible
07 Oct 4.8 04:35:48 10° NW 04:39:25 14° N 04:42:58 10° NNE visible
08 Oct 5.3 00:15:47 12° NE 00:15:47 12° NE 00:16:11 10° NE visible
08 Oct 4.4 02:03:14 27° N 02:03:14 27° N 02:06:54 10° NNE visible
08 Oct 4.7 03:50:39 13° NW 03:53:36 16° NNW 03:57:39 10° NNE visible
09 Oct 4.8 01:19:46 22° NNE 01:19:46 22° NNE 01:22:06 10° NNE visible
09 Oct 4.5 03:07:11 18° NNW 03:07:50 19° NNW 03:12:38 10° NNE visible
09 Oct 4.9 04:58:17 10° NNW 05:01:56 14° N 05:05:29 10° NE visible
